Regional Weather Roundup
Issued by NWS

Home | Current Version | Previous Version | Text Only | Print | Product List | Glossary On
Versions: 1 2 3 4 5 6 7 8 9 10 11 12 13 14 15 16 17 18 19 20 21 22 23 24 25 26 27 28 29 30 31 32 33 34 35 36 37 38 39 40 41 42
000
ASPQ40 PGUM 231412
RWRPQ
WEATHER ROUNDUP FOR THE MARIANAS AND MICRONESIA
NATIONAL WEATHER SERVICE TIYAN GU
1200 AM CHST WED SEP 24 2014

GUZ001>004-231500-
MARIANA ISLANDS-

CITY           SKY/WX    TMP DP  RH WIND       PRES   REMARKS
GUAM AIRPORT   LGT RAIN  79  75  89 W12       29.73F
ANDERSEN AFB   LGT RAIN  77  75  94 NW13      29.72F
ROTA AIRPORT   NOT AVBL
TINIAN AP      NOT AVBL
SAIPAN AP      HVY RAIN  79  77  94 NW6       29.68F

$$

PMZ161-231500-
REPUBLIC OF PALAU-

CITY           SKY/WX    TMP DP  RH WIND       PRES   REMARKS
KOROR AP       LGT RAIN  79  77  94 W5        29.87S
KOROR WSO      SHOWER    79  77  94 W10       29.86S

$$

PMZ171>174-231500-
FEDERATED STATES OF MICRONESIA-

CITY           SKY/WX    TMP DP  RH WIND       PRES   REMARKS
YAP AIRPORT    CLOUDY    82  77  83 VRB6      29.81F HX  91
CHUUK AP       LGT RAIN  82  81  94 SW9       29.81F HX  95
POHNPEI AP     NOT AVBL
POHNPEI WSO    LGT RAIN  79  75  89 E3        29.87F
KOSRAE AP      NOT AVBL

$$

PMZ181-231500-
REPUBLIC OF THE MARSHALL ISLANDS-

CITY           SKY/WX    TMP DP  RH WIND       PRES   REMARKS
KWAJALEIN AP   PTCLDY    82  75  78 NW3       29.84F
MAJURO AP      NOT AVBL
MAJURO WSO     MOCLDY    82  77  83 NE5       29.84F HX  91

$$



USA.gov is the U.S. government's official web portal to all federal, state and local government web resources and services.